This demonstration page uses our WeatherBlox Daily Observations layout. Learn more.

41.55636, -103.73856

Hourly Observations for July 7, 2016

Temp ( °F °C ) Dew Point ( °F °C ) Humidity (%) Winds ( mph kmh ) Pressure ( in mb ) Visibility ( mi km ) Precip ( " mm )
12:53 am 00:53 Clear 64 17.8 60 15.6 87 87 N 7 11 29.67 1005 10 16.0934 0 0
1:53 am 01:53 Clear 62 16.7 58 14.4 86 86 NNE 3 6 29.65 1004 10 16.0934 0 0
2:53 am 02:53 Clear 60 15.6 57 13.9 90 90 WNW 5 7 29.67 1005 10 16.0934 0 0
3:53 am 03:53 Clear 59 15 54 12.2 83 83 NNW 12 19 29.68 1005 10 16.0934 0 0
4:53 am 04:53 Clear 57 13.9 54 12.2 90 90 NNW 8 13 29.71 1006 10 16.0934 0 0
5:53 am 05:53 Sunny 57 13.9 52 11.1 83 83 W 7 11 29.77 1008 10 16.0934 0 0
6:53 am 06:53 Sunny 61 16.1 53 11.7 75 75 NW 9 15 29.82 1010 10 16.0934 0 0
7:53 am 07:53 Sunny 66 18.9 55 12.8 68 68 NNE 17 28 29.84 1011 10 16.0934 0 0
8:53 am 08:53 Sunny 69 20.6 55 12.8 61 61 NNE 7 11 29.87 1011 10 16.0934 0 0
9:53 am 09:53 Sunny 72 22.2 52 11.1 50 50 ENE 5 7 29.85 1011 10 16.0934 0 0
10:53 am 10:53 Mostly Sunny 69 20.6 54 12.2 59 59 NNE 9 15 29.86 1011 10 16.0934 0 0
11:53 am 11:53 Sunny 74 23.3 50 10 43 43 NNW 7 11 29.87 1011 10 16.0934 0 0
12:53 pm 12:53 Sunny 80 26.7 50 10 35 35 NE 10 17 29.88 1012 10 16.0934 0 0
1:53 pm 13:53 Sunny 82 27.8 51 10.6 34 34 E 13 20 29.88 1012 10 16.0934 0 0
2:53 pm 14:53 Sunny 82 27.8 49 9.4 32 32 VRB 7 11 29.88 1012 10 16.0934 0 0
3:53 pm 15:53 Sunny 82 27.8 49 9.4 32 32 ENE 9 15 29.86 1011 10 16.0934 0 0
4:53 pm 16:53 Sunny 82 27.8 52 11.1 35 35 SE 14 22 29.87 1012 10 16.0934 0 0
5:53 pm 17:53 Sunny 82 27.8 52 11.1 35 35 SE 12 19 29.86 1011 10 16.0934 0 0
6:53 pm 18:53 Sunny 80 26.7 53 11.7 39 39 ESE 12 19 29.85 1011 10 16.0934 0 0
7:53 pm 19:53 Sunny 75 23.9 56 13.3 52 52 E 9 15 29.87 1012 10 16.0934 0 0
8:53 pm 20:53 Clear 71 21.7 56 13.3 59 59 E 8 13 29.88 1012 10 16.0934 0 0
9:53 pm 21:53 Clear 66 18.9 57 13.9 73 73 ESE 6 9 29.91 1013 10 16.0934 0 0
10:53 pm 22:53 Clear 64 17.8 57 13.9 78 78 E 6 9 29.93 1014 10 16.0934 0 0
11:53 pm 23:53 Clear 63 17.2 57 13.9 81 81 ESE 8 13 29.94 1014 10 16.0934 0 0

Powered by AerisWeather